This demonstration page uses our WeatherBlox Daily Observations layout. Learn more.

Left ArrowRight Arrow

41.55636, -103.73856

Hourly Observations for February 9, 2020

Temp ( °F °C ) Dew Point ( °F °C ) Humidity (%) Winds ( mph kmh ) Pressure ( in mb ) Visibility ( mi km ) Precip ( " mm )
12:58 am 00:58 Mostly Clear 42 5.3 27 -3 55 55 WNW 28 44 29.72 1006 10 16 N/A
1:58 am 01:58 Mostly Cloudy 39 3.9 27 -2.7 62 62 W 16 26 29.74 1007 10 16 N/A
2:58 am 02:58 Cloudy 37 3 29 -1.5 73 73 NW 9 15 29.79 1009 10 16 N/A
3:58 am 03:58 Mostly Cloudy 35 1.7 29 -1.6 79 79 NW 15 24 29.82 1010 10 16 N/A
4:58 am 04:58 Partly Cloudy 32 0.2 27 -2.8 81 81 NW 16 26 29.85 1011 10 16 N/A
5:58 am 05:58 Mostly Cloudy 33 0.5 28 -2.1 83 83 NW 21 33 29.85 1011 10 16 N/A
6:58 am 06:58 Mostly Cloudy 31 -0.4 27 -3 83 83 NW 18 30 29.86 1011 10 16 N/A
7:58 am 07:58 Mostly Cloudy 30 -0.9 25 -3.8 81 81 NW 12 19 29.89 1012 10 16 N/A
8:58 am 08:58 Mostly Cloudy 31 -0.4 24 -4.3 75 75 N 20 31 29.90 1013 10 16 N/A
9:58 am 09:58 Mostly Cloudy 31 -0.3 24 -4.5 74 74 N 16 26 29.94 1014 10 16 N/A
10:58 am 10:58 Windy with Snow Showers Likely 29 -1.4 21 -5.9 72 72 N 22 35 29.98 1015 10 16 N/A
11:58 am 11:58 Windy with Snow Likely 25 -3.8 19 -7 79 79 NNE 20 31 30.09 1019 10 16 N/A
12:58 pm 12:58 Cloudy with Light Snow 23 -4.8 19 -7.3 83 83 NNE 17 28 30.12 1020 10 16 N/A
1:58 pm 13:58 Cloudy 23 -4.9 19 -7.3 83 83 NNE 18 30 30.16 1022 10 16 N/A
2:58 pm 14:58 Cloudy with Light Snow Showers 23 -5 19 -7.5 83 83 NE 15 24 30.21 1023 10 16 N/A
3:58 pm 15:58 Mostly Cloudy with Light Snow Showers 24 -4.5 18 -7.7 79 79 NNE 12 19 30.25 1024 10 16 N/A
4:58 pm 16:58 Mostly Cloudy with Light Snow Showers 24 -4.3 17 -8.2 75 75 NE 15 24 30.27 1025 10 16 N/A
5:58 pm 17:58 Mostly Cloudy 26 -3.5 17 -8.3 70 70 NNE 14 22 30.26 1025 10 16 N/A
6:58 pm 18:58 Mostly Cloudy 27 -2.6 16 -8.8 63 63 NE 8 13 30.25 1024 10 16 N/A
7:58 pm 19:58 Mostly Cloudy 28 -2.4 15 -9.5 59 59 NE 5 7 30.23 1024 10 16 N/A
8:58 pm 20:58 Cloudy 27 -2.6 15 -9.7 59 59 N N/A 30.22 1023 10 16 N/A
9:58 pm 21:58 Cloudy 27 -2.7 15 -9.5 60 60 N N/A 30.21 1023 10 16 N/A
10:58 pm 22:58 Cloudy 27 -2.8 16 -9.1 62 62 N N/A 30.19 1022 10 16 N/A
11:58 pm 23:58 Cloudy 27 -2.8 16 -8.9 63 63 N N/A 30.19 1022 10 16 N/A

Powered by AerisWeather